Regional Weather Roundup
Issued by NWS

Home | Current Version | Previous Version | Graphics & Text | Print | Product List | Glossary On
Versions: 1 2 3 4 5 6 7 8 9 10 11 12 13 14 15 16 17 18 19 20 21 22 23 24 25 26 27
000
ASUS45 KBOU 232007
RWRCO

WEATHER ROUNDUP FOR COLORADO
NATIONAL WEATHER SERVICE DENVER/BOULDER CO
200 PM MDT FRI JUN 23 2017

NOTE: "FAIR" INDICATES FEW OR NO CLOUDS BELOW 12000 FEET WITH NO
SIGNIFICANT WEATHER AND/OR OBSTRUCTIONS TO VISIBILITY.

COZ001>005-013-030-031-232100-
...NORTHWEST COLORADO...

CITY           SKY/WX    TMP DP  RH WIND       PRES   REMARKS
CRAIG          FAIR      79  28  15 NW7       30.22F
HAYDEN         FAIR      73  34  23 W14       30.23F
MEEKER         FAIR      78  31  17 S7        30.20F
RABBIT EARS PA FAIR      54  27  35 W12G23    30.46S
STEAMBOAT SPGS FAIR      72  31  21 SW8G17    30.24S
WALDEN         FAIR      70  30  23 N15G21    30.31S
$$

COZ006>008-011-232100-
...WEST CENTRAL VALLEYS...

CITY           SKY/WX    TMP DP  RH WIND       PRES   REMARKS
GRAND JUNCTION FAIR      89  18   7 VRB3      30.06F
MONTROSE       FAIR      85  23  10 N7G18     30.12F
EAGLE          SUNNY     82  21  10 SW17G24   30.16F
RIFLE          FAIR      87  23   9 W10G17    30.10F
DELTA          FAIR      93  21   7 W9G22     30.08F
NUCLA          FAIR      88  19   8 N6        30.17F
$$

COZ017>023-064>068-232100-
...SOUTHWEST COLORADO...

CITY           SKY/WX    TMP DP  RH WIND       PRES   REMARKS
DURANGO        FAIR      89  13   6 W17G31    30.13F
CORTEZ         FAIR      91  17   6 VRB7      30.12F
PAGOSA SPRINGS FAIR      87   6   5 SW16G25   30.19F
TELLURIDE      FAIR      75  16  11 W12G18    30.40F
WOLF CREEK PAS FAIR      63  27  25 S22G29    30.60F
$$

COZ009-010-012-014-032>034-037-058>063-232100-
...CENTRAL COLORADO...

CITY           SKY/WX    TMP DP  RH WIND       PRES   REMARKS
ASPEN          FAIR      78  28  16 N13G20    30.23F
BUENA VISTA    FAIR      69  43  38 S15G23    30.25F
COPPER MTN     FAIR      61   3  10 W8G25     30.55R
BERTHOUD PASS  FAIR      50  37  62 NW29G38   30.56R
COTTONWOOD PAS FAIR      72  39  30 E9        30.37F
GUNNISON       FAIR      77  32  19 SW18G24   30.22
KREMMLING      NOT AVBL
LEADVILLE      FAIR      69   1   7 W17G30    30.37F
MONARCH PASS   FAIR      61  21  21 W24G38    30.65F
SALIDA         FAIR      64  47  54 SE24G36   30.32F
SUNLIGHT       FAIR      63  28  27 SW12G23   30.51S
WILKERSON PASS FAIR      57  41  54 SW3       30.51S
$$

COZ069>075-232100-
...SAN LUIS VALLEY/SANGRE DE CRISTO MOUNTAINS...

CITY           SKY/WX    TMP DP  RH WIND       PRES   REMARKS
ALAMOSA        FAIR      79  37  22 VRB5      30.18F
DEL NORTE      FAIR      81  41  24 SE12G17   30.20F
LA VETA PASS   LGT RAIN  45  43  93 N3        30.54F VSB<1/4
SAGUACHE       FAIR      86  14   7 NW17G26   30.19F
$$

COZ035-036-038>040-232100-
...NORTHERN COLORADO FRONT RANGE...

CITY           SKY/WX    TMP DP  RH WIND       PRES   REMARKS
DENVER INTL AP CLOUDY    56  43  61 SE12      30.28F
DMNS CITY PARK   N/A     54  44  69 E17       30.28S
AURORA         CLOUDY    51  45  79 E12       30.30F
FRONT RANGE AP CLOUDY    55  45  67 SE10G20   30.30F
ERIE MUNI ARPT CLOUDY    57  44  61 S5        30.28F
BOULDER MUN AP CLOUDY    54  45  71 CALM      30.28F
CENTENNIAL     CLOUDY    50  45  83 NE8       30.29F
BROOMFIELD     CLOUDY    54  45  71 SE3       30.30S
FORT COLLINS   CLOUDY    61  45  55 SW7       30.27F
LONGMONT       CLOUDY    60  44  55 SE5       30.29F
$$

COZ041-046-047-076>085-087-088-232100-
...PIKES PEAK/PALMER DIVIDE AND SOUTHERN FOOTHILLS...

CITY           SKY/WX    TMP DP  RH WIND       PRES   REMARKS
COLO. SPRINGS  PTSUNNY   60  45  57 S18G24    30.29F
A. F. ACADEMY  CLOUDY    54  44  68 S15G22    30.29F
SCHRIEVER AFB  PTSUNNY   54  44  67 S12G20    30.31
CHEYENNE MTN   PTSUNNY   52  45  78 S21G31    30.23
ELLICOTT         N/A    N/A N/A N/A SE13G20   30.29F
FALCON           N/A     54  43  65 S14G21    30.32F
FORT CARSON    CLOUDY    59  46  62 S18       30.27F
LIMON          CLOUDY    60  42  51 MISG      30.28F
MONUMENT HILL  CLOUDY    52  43  71 SE16G22   30.32S
CANON CITY     CLOUDY    55  52  88 E12       30.28F
WALSENBURG     CLOUDY    57  52  82 E6        30.30F
TRINIDAD       CLOUDY    58  46  64 N5        30.30F
$$

COZ042>045-048>051-090-091-232100-
...NORTHEAST COLORADO...

CITY           SKY/WX    TMP DP  RH WIND       PRES   REMARKS
GREELEY ARPT   CLOUDY    62  44  51 VRB7      30.26F
AKRON          CLOUDY    63  40  42 S7        30.25F
BURLINGTON     CLOUDY    64  45  49 N9        30.24F
WRAY           CLOUDY    72  41  33 N3        30.21F
YUMA           CLOUDY    66  34  30 S6        30.22F
STERLING       FAIR      68  45  42 N5        30.21F
HOLYOKE        NOT AVBL
FORT MORGAN    PTSUNNY   65  41  41 NE3       30.26F
$$

COZ086-089-092>099-232100-
...SOUTHEAST COLORADO...

CITY           SKY/WX    TMP DP  RH WIND       PRES   REMARKS
PUEBLO         PTSUNNY   60  51  72 SE6       30.26F
LA JUNTA       CLOUDY    65  45  48 CALM      30.25F
LAMAR          PTSUNNY   69  43  38 NE10      30.21F
SPRINGFIELD      N/A     66  47  50 NE14G26   30.22F
$$




USA.gov is the U.S. government's official web portal to all federal, state and local government web resources and services.